Marshall, MN

12:44 AM CDT on August 27, 2016 (GMT -0500)
Marshall Municipal-Ryan

Weather History for KMML - November, 2013

Change the Weather History Date:

Thursday, November 14, 2013

  Actual Average Record
Temperature  
Mean Temperature 45 °F -  
Max Temperature 57 °F 40 °F 70 °F (1953)
Min Temperature 33 °F 23 °F -6 °F (1959)
Degree Days  
Heating Degree Days 20    
Moisture  
Dew Point 32 °F    
Average Humidity 64    
Maximum Humidity 81    
Minimum Humidity 41    
Precipitation  
Precipitation 0.00 in - - ()
Sea Level Pressure  
Sea Level Pressure 29.82 in    
Wind  
Wind Speed 10 mph (West)    
Max Wind Speed 22 mph    
Max Gust Speed 29 mph    
Visibility 10 miles    
Events      
Averages and records for this station are not official NWS values.
T = Trace of Precipitation, MM = Missing Value Source: NWS Daily Summary

Daily Weather History Graph

Daily Weather History Graph

Search for Another Location

Airport or City:

Trip Planner

Search our weather history database for the weather conditions in past years. The results will help you decide how hot, cold, wet, or windy it might be!

Date:

Astronomy

Nov. 14, 2013 Rise Set
Actual Time 7:18 AM CST 4:56 PM CST
Civil Twilight 6:47 AM CST 5:27 PM CST
Nautical Twilight 6:11 AM CST 6:03 PM CST
Astronomical Twilight 5:37 AM CST 6:37 PM CST
Moon 3:23 PM CST (11/14) 4:08 AM CST (11/14)
Length of Visible Light 10h 40m
Length of Day
9h 38m
Waxing Gibbous, 92% of the Moon is Illuminated
Nov 14
Waxing Gibbous
Nov 17
Full
Nov 25
Last Quarter
Dec 2
New
Dec 9
First Quarter

Hourly Weather History & Observations

Time (CST) Temp. Windchill Dew Point Humidity Pressure Visibility Wind Dir Wind Speed Gust Speed Precip Events Conditions
12:15 AM 37.4 °F 30.8 °F 28.4 °F 70% 29.86 in 10.0 mi West 9.2 mph - N/A   Clear
12:35 AM 37.4 °F 31.4 °F 28.4 °F 70% 29.87 in 10.0 mi West 8.1 mph - N/A   Clear
12:55 AM 39.2 °F 32.5 °F 30.2 °F 70% 29.86 in 10.0 mi West 10.4 mph - N/A   Clear
1:15 AM 39.2 °F 33.0 °F 30.2 °F 70% 29.85 in 10.0 mi West 9.2 mph - N/A   Scattered Clouds
1:35 AM 41.0 °F 35.8 °F 32.0 °F 70% 29.85 in 10.0 mi West 8.1 mph - N/A   Mostly Cloudy
1:55 AM 41.0 °F 35.2 °F 30.2 °F 65% 29.84 in 10.0 mi West 9.2 mph - N/A   Partly Cloudy
2:15 AM 39.2 °F 32.0 °F 30.2 °F 70% 29.85 in 10.0 mi West 11.5 mph - N/A   Clear
2:35 AM 39.2 °F 32.5 °F 30.2 °F 70% 29.84 in 10.0 mi West 10.4 mph - N/A   Clear
2:55 AM 39.2 °F 34.2 °F 32.0 °F 75% 29.82 in 10.0 mi West 6.9 mph - N/A   Partly Cloudy
3:15 AM 39.2 °F 32.5 °F 32.0 °F 75% 29.83 in 10.0 mi West 10.4 mph - N/A   Mostly Cloudy
3:35 AM 42.8 °F 38.6 °F 32.0 °F 66% 29.82 in 10.0 mi WNW 6.9 mph - N/A   Overcast
3:55 AM 41.0 °F 36.4 °F 32.0 °F 70% 29.83 in 10.0 mi West 6.9 mph - N/A   Scattered Clouds
4:15 AM 41.0 °F 35.8 °F 32.0 °F 70% 29.84 in 10.0 mi West 8.1 mph - N/A   Partly Cloudy
4:35 AM 41.0 °F 37.1 °F 30.2 °F 65% 29.83 in 10.0 mi WNW 5.8 mph - N/A   Partly Cloudy
4:55 AM 41.0 °F 35.8 °F 32.0 °F 70% 29.83 in 10.0 mi West 8.1 mph - N/A   Clear
5:15 AM 42.8 °F 37.5 °F 32.0 °F 66% 29.83 in 10.0 mi WSW 9.2 mph - N/A   Partly Cloudy
5:35 AM 42.8 °F 37.5 °F 32.0 °F 66% 29.83 in 10.0 mi WSW 9.2 mph - N/A   Clear
5:55 AM 42.8 °F 38.0 °F 33.8 °F 70% 29.82 in 10.0 mi SW 8.1 mph - N/A   Clear
6:15 AM 42.8 °F 38.0 °F 33.8 °F 70% 29.83 in 10.0 mi WSW 8.1 mph - N/A   Partly Cloudy
6:35 AM 42.8 °F 38.0 °F 33.8 °F 70% 29.82 in 10.0 mi SW 8.1 mph - N/A   Clear
6:55 AM 42.8 °F 38.0 °F 33.8 °F 70% 29.83 in 10.0 mi WSW 8.1 mph - N/A   Clear
7:15 AM 42.8 °F 37.5 °F 33.8 °F 70% 29.82 in 10.0 mi SW 9.2 mph - N/A   Clear
7:35 AM 44.6 °F 39.7 °F 33.8 °F 66% 29.83 in 10.0 mi WSW 9.2 mph - N/A   Clear
7:55 AM 44.6 °F 39.7 °F 33.8 °F 66% 29.83 in 10.0 mi West 9.2 mph - N/A   Partly Cloudy
8:15 AM 44.6 °F 40.2 °F 33.8 °F 66% 29.83 in 10.0 mi West 8.1 mph - N/A   Mostly Cloudy
8:35 AM 46.4 °F 41.9 °F 33.8 °F 62% 29.84 in 10.0 mi WNW 9.2 mph - N/A   Mostly Cloudy
8:55 AM 46.4 °F 41.5 °F 35.6 °F 66% 29.83 in 10.0 mi West 10.4 mph - N/A   Partly Cloudy
9:15 AM 48.2 °F - 35.6 °F 62% 29.83 in 10.0 mi West 11.5 mph - N/A   Partly Cloudy
9:35 AM 50.0 °F - 35.6 °F 58% 29.83 in 10.0 mi West 13.8 mph - N/A   Clear
9:55 AM 50.0 °F - 35.6 °F 58% 29.82 in 10.0 mi West 18.4 mph - N/A   Clear
10:15 AM 50.0 °F - 35.6 °F 58% 29.83 in 10.0 mi West 16.1 mph - N/A   Clear
10:35 AM 50.0 °F - 35.6 °F 58% 29.83 in 10.0 mi West 15.0 mph - N/A   Clear
10:55 AM 51.8 °F - 35.6 °F 54% 29.82 in 10.0 mi West 16.1 mph - N/A   Clear
11:15 AM 51.8 °F - 35.6 °F 54% 29.82 in 10.0 mi West 15.0 mph - N/A   Clear
11:35 AM 53.6 °F - 35.6 °F 51% 29.81 in 10.0 mi West 16.1 mph - N/A   Clear
11:55 AM 55.4 °F - 35.6 °F 47% 29.80 in 10.0 mi West 17.3 mph - N/A   Clear
12:15 PM 57.2 °F - 35.6 °F 44% 29.79 in 10.0 mi West 18.4 mph 21.9 mph N/A   Clear
12:35 PM 57.2 °F - 35.6 °F 44% 29.79 in 10.0 mi WNW 20.7 mph - N/A   Clear
12:55 PM 57.2 °F - 33.8 °F 41% 29.78 in 10.0 mi WNW 19.6 mph 26.5 mph N/A   Clear
1:15 PM 55.4 °F - 33.8 °F 44% 29.79 in 10.0 mi WNW 18.4 mph 28.8 mph N/A   Clear
1:35 PM 55.4 °F - 33.8 °F 44% 29.78 in 10.0 mi WNW 21.9 mph 27.6 mph N/A   Clear
1:55 PM 55.4 °F - 33.8 °F 44% 29.78 in 10.0 mi NW 18.4 mph - N/A   Clear
2:15 PM 55.4 °F - 35.6 °F 47% 29.78 in 10.0 mi NW 16.1 mph - N/A   Clear
2:35 PM 55.4 °F - 35.6 °F 47% 29.78 in 10.0 mi NW 18.4 mph - N/A   Clear
2:55 PM 53.6 °F - 35.6 °F 51% 29.78 in 10.0 mi NNW 16.1 mph 20.7 mph N/A   Clear
3:15 PM 53.6 °F - 33.8 °F 47% 29.79 in 10.0 mi NW 17.3 mph - N/A   Clear
3:35 PM 53.6 °F - 35.6 °F 51% 29.79 in 10.0 mi NNW 13.8 mph - N/A   Clear
3:55 PM 51.8 °F - 33.8 °F 50% 29.80 in 10.0 mi NNW 12.7 mph - N/A   Clear
4:15 PM 51.8 °F - 33.8 °F 50% 29.80 in 10.0 mi NNW 11.5 mph - N/A   Clear
4:35 PM 48.2 °F - 33.8 °F 58% 29.80 in 10.0 mi NNW 9.2 mph - N/A   Clear
4:55 PM 46.4 °F 42.9 °F 33.8 °F 62% 29.81 in 10.0 mi NNW 6.9 mph - N/A   Clear
5:15 PM 46.4 °F 42.4 °F 32.0 °F 57% 29.81 in 10.0 mi NNW 8.1 mph - N/A   Clear
5:35 PM 44.6 °F 41.4 °F 30.2 °F 57% 29.82 in 10.0 mi NNW 5.8 mph - N/A   Clear
5:55 PM 42.8 °F 40.1 °F 30.2 °F 61% 29.82 in 10.0 mi WNW 4.6 mph - N/A   Clear
6:15 PM 37.4 °F 31.4 °F 28.4 °F 70% 29.82 in 10.0 mi West 8.1 mph - N/A   Clear
6:35 PM 37.4 °F 30.8 °F 28.4 °F 70% 29.82 in 10.0 mi West 9.2 mph - N/A   Clear
6:55 PM 35.6 °F 29.2 °F 28.4 °F 75% 29.82 in 10.0 mi West 8.1 mph - N/A   Clear
7:15 PM 35.6 °F 29.9 °F 28.4 °F 75% 29.82 in 10.0 mi West 6.9 mph - N/A   Clear
7:35 PM 35.6 °F 28.0 °F 26.6 °F 70% 29.82 in 10.0 mi West 10.4 mph - N/A   Clear
7:55 PM 33.8 °F 27.0 °F 26.6 °F 75% 29.82 in 10.0 mi West 8.1 mph - N/A   Clear
8:15 PM 35.6 °F 28.0 °F 28.4 °F 75% 29.82 in 10.0 mi WSW 10.4 mph - N/A   Clear
8:35 PM 37.4 °F 30.8 °F 28.4 °F 70% 29.82 in 10.0 mi WSW 9.2 mph - N/A   Clear
8:55 PM 35.6 °F 32.8 °F 28.4 °F 75% 29.82 in 10.0 mi South 3.5 mph - N/A   Clear
9:15 PM 35.6 °F 31.7 °F 28.4 °F 75% 29.82 in 10.0 mi SSW 4.6 mph - N/A   Clear
9:35 PM 35.6 °F 32.8 °F 28.4 °F 75% 29.82 in 10.0 mi SW 3.5 mph - N/A   Clear
9:55 PM 35.6 °F 32.8 °F 28.4 °F 75% 29.81 in 10.0 mi SW 3.5 mph - N/A   Clear
10:15 PM 33.8 °F 30.8 °F 26.6 °F 75% 29.81 in 10.0 mi SSW 3.5 mph - N/A   Clear
10:35 PM 35.6 °F 30.7 °F 28.4 °F 75% 29.81 in 10.0 mi SSW 5.8 mph - N/A   Clear
10:55 PM 33.8 °F 28.6 °F 26.6 °F 75% 29.80 in 10.0 mi SSW 5.8 mph - N/A   Clear
11:15 PM 33.8 °F 27.0 °F 26.6 °F 75% 29.80 in 10.0 mi SSW 8.1 mph - N/A   Clear
11:35 PM 33.8 °F 25.3 °F 28.4 °F 81% 29.80 in 10.0 mi SSW 11.5 mph - N/A   Clear
11:55 PM 33.8 °F 25.3 °F 28.4 °F 81% 29.80 in 10.0 mi SSW 11.5 mph - N/A   Clear